Fremont, NE

11:03 AM CST on February 25, 2017 (GMT -0600)
Fremont Municipal

Weather History for KFET - January, 2015

Change the Weather History Date:

Monday, January 19, 2015

  Actual Average Record
Temperature  
Mean Temperature 40 °F -  
Max Temperature 55 °F 34 °F 67 °F (2014)
Min Temperature 26 °F 12 °F -16 °F (1970)
Degree Days  
Heating Degree Days 24    
Moisture  
Dew Point 29 °F    
Average Humidity 74    
Maximum Humidity 94    
Minimum Humidity 39    
Precipitation  
Precipitation 0.00 in - - ()
Sea Level Pressure  
Sea Level Pressure 29.92 in    
Wind  
Wind Speed 2 mph (WNW)    
Max Wind Speed 13 mph    
Max Gust Speed 17 mph    
Visibility 10 miles    
Events      
Averages and records for this station are not official NWS values.
T = Trace of Precipitation, MM = Missing Value Source: NWS Daily Summary

Daily Weather History Graph

Daily Weather History Graph

Search for Another Location

Airport or City:

Trip Planner

Search our weather history database for the weather conditions in past years. The results will help you decide how hot, cold, wet, or windy it might be!

Date:

Astronomy

Jan. 19, 2015 Rise Set
Actual Time 7:48 AM CST 5:25 PM CST
Civil Twilight 7:17 AM CST 5:56 PM CST
Nautical Twilight 6:43 AM CST 6:30 PM CST
Astronomical Twilight 6:10 AM CST 7:03 PM CST
Moon 6:40 AM CST (1/19) 4:55 PM CST (1/19)
Length of Visible Light 10h 38m
Length of Day
9h 37m
Waning Crescent, 1% of the Moon is Illuminated
Jan 19
Waning Crescent
Jan 20
New
Jan 26
First Quarter
Feb 3
Full
Feb 11
Last Quarter

Hourly Weather History & Observations

Time (CST) Temp. Windchill Dew Point Humidity Pressure Visibility Wind Dir Wind Speed Gust Speed Precip Events Conditions
12:15 AM 29.8 °F - 26.6 °F 88% 29.94 in 10.0 mi Calm Calm - N/A   Clear
12:35 AM 29.8 °F - 26.2 °F 86% 29.94 in 10.0 mi Calm Calm - N/A   Clear
12:55 AM 28.0 °F - 25.0 °F 88% 29.94 in 10.0 mi Calm Calm - N/A   Clear
1:15 AM 28.0 °F - 26.1 °F 92% 29.93 in 10.0 mi Calm Calm - N/A   Clear
1:35 AM 27.7 °F - 25.5 °F 92% 29.93 in 10.0 mi Calm Calm - N/A   Clear
1:55 AM 28.2 °F - 25.2 °F 88% 29.93 in 10.0 mi Calm Calm - N/A   Clear
2:15 AM 28.8 °F - 26.4 °F 91% 29.92 in 10.0 mi Calm Calm - N/A   Clear
2:35 AM 26.6 °F 22.6 °F 25.0 °F 94% 29.93 in 10.0 mi West 3.5 mph - N/A   Clear
2:55 AM 28.6 °F - 27.1 °F 94% 29.93 in 10.0 mi Calm Calm - N/A   Clear
3:15 AM 27.7 °F - 25.5 °F 92% 29.92 in 10.0 mi Calm Calm - N/A   Clear
3:35 AM 27.5 °F - 26.1 °F 94% 29.92 in 10.0 mi Calm Calm - N/A   Clear
3:55 AM 27.7 °F - 25.9 °F 93% 29.91 in 10.0 mi Calm Calm - N/A   Clear
4:15 AM 27.1 °F - 25.3 °F 93% 29.91 in 10.0 mi Calm Calm - N/A   Clear
4:35 AM 27.9 °F - 26.2 °F 94% 29.91 in 10.0 mi Calm Calm - N/A   Clear
4:55 AM 28.9 °F - 27.0 °F 92% 29.90 in 10.0 mi Calm Calm - N/A   Clear
5:15 AM 29.8 °F - 28.2 °F 94% 29.90 in 10.0 mi Calm Calm - N/A   Clear
5:35 AM 30.6 °F - 28.0 °F 90% 29.90 in 10.0 mi Calm Calm - N/A   Clear
5:55 AM 30.7 °F - 28.6 °F 92% 29.89 in 10.0 mi Calm Calm - N/A   Mostly Cloudy
6:15 AM 31.1 °F - 29.1 °F 92% 29.88 in 10.0 mi Calm Calm - N/A   Mostly Cloudy
6:35 AM 31.3 °F - 28.9 °F 91% 29.87 in 10.0 mi Calm Calm - N/A   Scattered Clouds
6:55 AM 31.6 °F - 29.1 °F 90% 29.87 in 10.0 mi Calm Calm - N/A   Scattered Clouds
7:15 AM 32.0 °F - 29.1 °F 89% 29.89 in 10.0 mi Calm Calm - N/A   Scattered Clouds
7:35 AM 32.0 °F - 29.1 °F 89% 29.89 in 10.0 mi Calm Calm - N/A   Scattered Clouds
7:55 AM 32.0 °F - 30.0 °F 92% 29.89 in 10.0 mi Calm Calm - N/A   Scattered Clouds
8:15 AM 32.0 °F - 30.4 °F 94% 29.88 in 10.0 mi Calm Calm - N/A   Scattered Clouds
8:35 AM 32.0 °F 25.6 °F 29.8 °F 92% 29.89 in 10.0 mi NNW 6.9 mph - N/A   Scattered Clouds
8:55 AM 32.7 °F - 30.2 °F 90% 29.90 in 10.0 mi Calm Calm - N/A   Scattered Clouds
9:15 AM 33.4 °F - 30.4 °F 89% 29.90 in 10.0 mi Calm Calm - N/A   Clear
9:35 AM 35.6 °F - 30.6 °F 82% 29.90 in 10.0 mi Calm Calm - N/A   Clear
9:55 AM 36.7 °F - 31.1 °F 80% 29.91 in 10.0 mi Calm Calm - N/A   Scattered Clouds
10:15 AM 38.3 °F - 31.1 °F 75% 29.91 in 10.0 mi Calm Calm - N/A   Scattered Clouds
10:35 AM 40.5 °F - 30.7 °F 68% 29.92 in 10.0 mi Calm Calm - N/A   Clear
10:55 AM 41.2 °F - 30.0 °F 65% 29.91 in 10.0 mi Calm Calm - N/A   Clear
11:15 AM 43.7 °F 42.1 °F 30.9 °F 61% 29.90 in 10.0 mi SE 3.5 mph - N/A   Scattered Clouds
11:35 AM 46.4 °F 42.4 °F 31.6 °F 56% 29.92 in 10.0 mi WNW 8.1 mph - N/A   Scattered Clouds
11:55 AM 45.5 °F 40.3 °F 32.2 °F 60% 29.92 in 10.0 mi WNW 10.4 mph - N/A   Scattered Clouds
12:15 PM 46.9 °F - 31.8 °F 56% 29.92 in 10.0 mi NW 6.9 mph - N/A   Overcast
12:35 PM 46.8 °F - 32.4 °F 57% 29.92 in 10.0 mi NNW 6.9 mph - N/A   Overcast
12:55 PM 49.1 °F - 31.6 °F 51% 29.91 in 10.0 mi NW 9.2 mph - N/A   Overcast
1:15 PM 48.2 °F - 32.0 °F 54% 29.91 in 10.0 mi NW 3.5 mph - N/A   Overcast
1:35 PM 49.1 °F - 32.5 °F 53% 29.91 in 10.0 mi NNW 8.1 mph - N/A   Scattered Clouds
1:55 PM 50.2 °F - 33.3 °F 52% 29.90 in 10.0 mi Calm Calm - N/A   Mostly Cloudy
2:15 PM 51.8 °F - 34.2 °F 51% 29.90 in 10.0 mi NW 4.6 mph - N/A   Overcast
2:35 PM 52.0 °F - 34.7 °F 52% 29.91 in 10.0 mi NW 3.5 mph - N/A   Overcast
2:55 PM 53.8 °F - 34.2 °F 47% 29.90 in 10.0 mi NW 4.6 mph - N/A   Mostly Cloudy
3:15 PM 55.9 °F - 32.5 °F 41% 29.91 in 10.0 mi WNW 10.4 mph - N/A   Scattered Clouds
3:55 PM 55.4 °F - 32.0 °F 41% 29.92 in 10.0 mi NW 10.4 mph - N/A   Clear
4:15 PM 54.5 °F - 30.0 °F 39% 29.93 in 10.0 mi NW 12.7 mph 17.3 mph N/A   Clear
4:35 PM 52.7 °F - 30.7 °F 43% 29.93 in 10.0 mi NW 9.2 mph 16.1 mph N/A   Clear
4:55 PM 50.0 °F - 30.2 °F 47% 29.93 in 10.0 mi NW 6.9 mph - N/A   Clear
5:15 PM 46.0 °F 43.9 °F 30.9 °F 56% 29.93 in 10.0 mi WNW 4.6 mph - N/A   Clear
5:35 PM 44.4 °F 42.0 °F 30.7 °F 59% 29.94 in 10.0 mi West 4.6 mph - N/A   Clear
5:55 PM 42.4 °F 38.8 °F 29.8 °F 61% 29.94 in 10.0 mi West 5.8 mph - N/A   Clear
6:15 PM 44.4 °F 42.0 °F 30.2 °F 57% 29.95 in 10.0 mi West 4.6 mph - N/A   Clear
6:35 PM 42.1 °F 39.2 °F 30.6 °F 64% 29.95 in 10.0 mi WSW 4.6 mph - N/A   Clear
6:55 PM 43.9 °F 39.9 °F 31.1 °F 61% 29.96 in 10.0 mi West 6.9 mph - N/A   Clear
7:15 PM 39.9 °F 35.8 °F 29.3 °F 66% 29.96 in 10.0 mi WSW 5.8 mph - N/A   Clear
7:35 PM 41.9 °F 36.9 °F 30.6 °F 64% 29.96 in 10.0 mi WSW 8.1 mph - N/A   Clear
7:55 PM 42.4 °F 37.0 °F 30.6 °F 63% 29.96 in 10.0 mi West 9.2 mph - N/A   Clear
8:15 PM 39.9 °F 33.9 °F 30.0 °F 68% 29.96 in 10.0 mi West 9.2 mph - N/A   Clear
8:35 PM 39.0 °F 32.8 °F 30.0 °F 70% 29.96 in 10.0 mi West 9.2 mph - N/A   Clear
8:55 PM 38.3 °F 31.4 °F 29.8 °F 72% 29.96 in 10.0 mi West 10.4 mph - N/A   Clear
9:15 PM 37.8 °F 31.3 °F 29.8 °F 73% 29.96 in 10.0 mi West 9.2 mph - N/A   Clear
9:35 PM 37.0 °F 30.4 °F 29.3 °F 74% 29.96 in 10.0 mi West 9.2 mph - N/A   Clear
9:55 PM 36.3 °F 30.1 °F 29.3 °F 76% 29.96 in 10.0 mi West 8.1 mph - N/A   Clear
10:15 PM 35.6 °F 29.2 °F 29.3 °F 78% 29.96 in 10.0 mi West 8.1 mph - N/A   Clear
10:35 PM 32.9 °F 25.9 °F 27.7 °F 81% 29.96 in 10.0 mi West 8.1 mph - N/A   Clear
10:55 PM 36.5 °F 29.2 °F 29.3 °F 75% 29.96 in 10.0 mi West 10.4 mph - N/A   Clear
11:15 PM 37.2 °F 30.0 °F 29.1 °F 73% 29.97 in 10.0 mi West 10.4 mph - N/A   Clear
11:35 PM 32.2 °F 25.0 °F 27.5 °F 83% 29.97 in 10.0 mi West 8.1 mph - N/A   Clear
11:55 PM 32.9 °F 25.9 °F 28.4 °F 84% 29.97 in 10.0 mi West 8.1 mph - N/A   Clear